| time (UTC) | temp F | wind direction | speed knots | gust knots | rain 1hr in | rain 24hr in | rain mn in | humidity % | barometer mb |
| 20260505011541 | 76 | 259 | 0.9 | 4.3 | 0.00 | 0.00 | 0.00 | 54 | 1002.7 |
| 20260505004534 | 77 | 243 | 2.6 | 7.8 | 0.00 | 0.00 | 0.00 | 52 | 1002.6 |
| 20260505003041 | 78 | 241 | 3.5 | 11.3 | 0.00 | 0.00 | 0.00 | 53 | 1002.5 |
| 20260505001535 | 78 | 238 | 2.6 | 6.1 | 0.00 | 0.00 | 0.00 | 54 | 1002.4 |
| 20260505000044 | 79 | 238 | 2.6 | 7.8 | 0.00 | 0.00 | 0.00 | 51 | 1002.5 |
| 20260504234537 | 80 | 241 | 3.5 | 8.7 | 0.00 | 0.00 | 0.00 | 50 | 1002.5 |
| 20260504233034 | 80 | 255 | 3.5 | 7.8 | 0.00 | 0.00 | 0.00 | 51 | 1002.5 |
| 20260504231542 | 81 | 247 | 2.6 | 9.6 | 0.00 | 0.00 | 0.00 | 50 | 1002.6 |
| 20260504230042 | 81 | 214 | 3.5 | 9.6 | 0.00 | 0.00 | 0.00 | 48 | 1002.8 |
| 20260504224536 | 81 | 218 | 3.5 | 10.4 | 0.00 | 0.00 | 0.00 | 49 | 1002.8 |
| 20260504223038 | 81 | 285 | 4.3 | 12.2 | 0.00 | 0.00 | 0.00 | 49 | 1003.0 |
| 20260504221548 | 81 | 283 | 2.6 | 11.3 | 0.00 | 0.00 | 0.00 | 48 | 1003.0 |
| 20260504220034 | 81 | 265 | 2.6 | 8.7 | 0.00 | 0.00 | 0.00 | 50 | 1003.0 |
| 20260504214539 | 81 | 270 | 5.2 | 13.0 | 0.00 | 0.00 | 0.00 | 49 | 1002.9 |
| 20260504213052 | 82 | 240 | 1.7 | 7.0 | 0.00 | 0.00 | 0.00 | 49 | 1003.0 |
| 20260504211539 | 81 | 281 | 6.1 | 12.2 | 0.00 | 0.00 | 0.00 | 50 | 1002.9 |
| 20260504210034 | 81 | 229 | 3.5 | 13.0 | 0.00 | 0.00 | 0.00 | 50 | 1003.2 |
| 20260504204535 | 81 | 264 | 3.5 | 15.6 | 0.00 | 0.00 | 0.00 | 51 | 1003.2 |
| 20260504203048 | 80 | 213 | 2.6 | 11.3 | 0.00 | 0.00 | 0.00 | 53 | 1003.2 |
| 20260504201538 | 80 | 260 | 3.5 | 10.4 | 0.00 | 0.00 | 0.00 | 54 | 1003.6 |
| 20260504200035 | 79 | 288 | 2.6 | 10.4 | 0.00 | 0.00 | 0.00 | 55 | 1003.9 |
| 20260504194541 | 77 | 138 | 4.3 | 7.8 | 0.00 | 0.00 | 0.00 | 60 | 1004.2 |
| 20260504193036 | 75 | 251 | 1.7 | 7.0 | 0.00 | 0.00 | 0.00 | 61 | 1004.3 |
| 20260504191538 | 74 | 292 | 0.9 | 2.6 | 0.00 | 0.00 | 0.00 | 64 | 1004.5 |
| 20260504190038 | 71 | 236 | 0.9 | 3.5 | 0.00 | 0.00 | 0.00 | 68 | 1004.7 |
| 20260504184538 | 68 | 38 | 1.7 | 7.0 | 0.00 | 0.00 | 0.00 | 68 | 1004.0 |
| 20260504183039 | 68 | 32 | 0.9 | 4.3 | 0.00 | 0.00 | 0.00 | 68 | 1004.6 |
| 20260504181537 | 69 | 0 | 0.9 | 5.2 | 0.00 | 0.00 | 0.00 | 64 | 1005.5 |
| 20260504180040 | 70 | 8 | 0.0 | 3.5 | 0.00 | 0.00 | 0.00 | 62 | 1005.5 |
| 20260504174543 | 71 | 30 | 0.0 | 4.3 | 0.00 | 0.00 | 0.00 | 61 | 1005.5 |
| 20260504173039 | 71 | 58 | 0.9 | 4.3 | 0.00 | 0.00 | 0.00 | 60 | 1005.7 |
| 20260504171538 | 71 | 273 | 1.7 | 3.5 | 0.00 | 0.00 | 0.00 | 62 | 1006.1 |
| 20260504160209 | 65 | 226 | 3.5 | 9.6 | 0.00 | 0.00 | 0.00 | 70 | 1006.6 |
| 20260504081534 | 57 | 0 | 0.0 | 0.0 | 0.00 | 0.00 | 0.00 | 84 | 1008.7 |
| 20260504044534 | 63 | 0 | 0.0 | 0.0 | 0.00 | 0.00 | 0.00 | 69 | 1008.5 |
| 20260504043036 | 64 | 0 | 0.0 | 0.0 | 0.00 | 0.00 | 0.00 | 67 | 1008.6 |
| 20260504041539 | 66 | 0 | 0.0 | 0.9 | 0.00 | 0.00 | 0.00 | 62 | 1009.1 |
| 20260504040058 | 67 | 313 | 0.9 | 2.6 | 0.00 | 0.00 | 0.00 | 60 | 1009.5 |
| 20260504034533 | 68 | 276 | 1.7 | 6.1 | 0.00 | 0.00 | 0.00 | 61 | 1009.4 |
| 20260504033035 | 68 | 0 | 0.0 | 1.7 | 0.00 | 0.00 | 0.00 | 59 | 1008.8 |
| 20260504031535 | 68 | 254 | 1.7 | 3.5 | 0.00 | 0.00 | 0.00 | 60 | 1009.6 |
| 20260504030035 | 67 | 0 | 0.0 | 0.9 | 0.00 | 0.00 | 0.00 | 61 | 1009.7 |
| 20260504024536 | 68 | 0 | 0.0 | 0.0 | 0.00 | 0.00 | 0.00 | 61 | 1009.5 |
| 20260504023036 | 68 | 0 | 0.0 | 0.0 | 0.00 | 0.00 | 0.00 | 59 | 1009.4 |
| 20260504021536 | 68 | 0 | 0.0 | 0.0 | 0.00 | 0.00 | 0.00 | 59 | 1009.4 |
| 20260504020032 | 69 | 0 | 0.0 | 0.0 | 0.00 | 0.00 | 0.00 | 58 | 1009.3 |
| 20260504014537 | 71 | 0 | 0.0 | 0.0 | 0.00 | 0.00 | 0.00 | 54 | 1009.4 |
| 20260504013038 | 72 | 0 | 0.0 | 0.9 | 0.00 | 0.00 | 0.00 | 52 | 1009.3 |